| time (UTC) | temp F | wind direction | speed knots | gust knots | rain 1hr in | rain 24hr in | rain mn in | humidity % | barometer mb |
| 20260507051556 | 61 | 187 | 0.0 | 0.9 | 0.00 | 0.00 | 0.00 | 71 | 1016.5 |
| 20260507051047 | 61 | 187 | 0.0 | 1.7 | 0.00 | 0.00 | 0.00 | 70 | 1016.5 |
| 20260507050552 | 61 | 190 | 0.0 | 1.7 | 0.00 | 0.00 | 0.00 | 70 | 1016.4 |
| 20260507045548 | 62 | 172 | 0.0 | 1.7 | 0.00 | 0.00 | 0.00 | 68 | 1016.3 |
| 20260507045053 | 62 | 172 | 0.9 | 1.7 | 0.00 | 0.00 | 0.00 | 67 | 1016.3 |
| 20260507044601 | 62 | 354 | 0.0 | 1.7 | 0.00 | 0.00 | 0.00 | 67 | 1016.2 |
| 20260507044052 | 62 | 354 | 0.9 | 1.7 | 0.00 | 0.00 | 0.00 | 67 | 1016.3 |
| 20260507043600 | 62 | 342 | 0.0 | 1.7 | 0.00 | 0.00 | 0.00 | 66 | 1016.3 |
| 20260507043049 | 62 | 352 | 1.7 | 1.7 | 0.00 | 0.00 | 0.00 | 66 | 1016.2 |
| 20260507042559 | 62 | 10 | 1.7 | 1.7 | 0.00 | 0.00 | 0.00 | 65 | 1016.2 |
| 20260507042048 | 63 | 358 | 0.9 | 1.7 | 0.00 | 0.00 | 0.00 | 65 | 1016.2 |
| 20260507041558 | 63 | 2 | 1.7 | 2.6 | 0.00 | 0.00 | 0.00 | 65 | 1016.1 |
| 20260507041048 | 63 | 356 | 0.9 | 2.6 | 0.00 | 0.00 | 0.00 | 65 | 1016.0 |
| 20260507040559 | 63 | 19 | 1.7 | 2.6 | 0.00 | 0.00 | 0.00 | 65 | 1016.0 |
| 20260507040108 | 63 | 350 | 0.0 | 1.7 | 0.00 | 0.00 | 0.00 | 65 | 1016.0 |
| 20260507035557 | 63 | 354 | 0.9 | 1.7 | 0.00 | 0.00 | 0.00 | 65 | 1015.9 |
| 20260507035047 | 64 | 360 | 0.9 | 2.6 | 0.00 | 0.00 | 0.00 | 64 | 1015.9 |
| 20260507034557 | 64 | 360 | 0.9 | 2.6 | 0.00 | 0.00 | 0.00 | 64 | 1015.8 |
| 20260507034108 | 64 | 355 | 1.7 | 2.6 | 0.00 | 0.00 | 0.00 | 63 | 1015.6 |
| 20260507033556 | 64 | 357 | 0.9 | 2.6 | 0.00 | 0.00 | 0.00 | 63 | 1015.6 |
| 20260507033048 | 64 | 354 | 0.9 | 4.3 | 0.00 | 0.00 | 0.00 | 63 | 1015.6 |
| 20260507032557 | 65 | 2 | 2.6 | 4.3 | 0.00 | 0.00 | 0.00 | 62 | 1015.6 |
| 20260507032046 | 65 | 352 | 1.7 | 3.5 | 0.00 | 0.00 | 0.00 | 62 | 1015.6 |
| 20260507031614 | 65 | 355 | 0.9 | 3.5 | 0.00 | 0.00 | 0.00 | 61 | 1015.5 |
| 20260507031102 | 65 | 14 | 2.6 | 4.3 | 0.00 | 0.00 | 0.00 | 61 | 1015.5 |
| 20260507030549 | 66 | 15 | 2.6 | 4.3 | 0.00 | 0.00 | 0.00 | 60 | 1015.4 |
| 20260507030054 | 66 | 354 | 2.6 | 6.1 | 0.00 | 0.00 | 0.00 | 59 | 1015.3 |
| 20260507025602 | 67 | 359 | 2.6 | 7.0 | 0.00 | 0.00 | 0.00 | 59 | 1015.3 |
| 20260507025050 | 67 | 6 | 4.3 | 7.0 | 0.00 | 0.00 | 0.00 | 58 | 1015.2 |
| 20260507024557 | 68 | 8 | 4.3 | 7.0 | 0.00 | 0.00 | 0.00 | 57 | 1015.1 |
| 20260507024052 | 68 | 3 | 3.5 | 7.0 | 0.00 | 0.00 | 0.00 | 56 | 1015.1 |
| 20260507023556 | 68 | 339 | 2.6 | 7.8 | 0.00 | 0.00 | 0.00 | 55 | 1015.0 |
| 20260507023125 | 69 | 6 | 3.5 | 7.8 | 0.00 | 0.00 | 0.00 | 55 | 1015.0 |
| 20260507022613 | 69 | 341 | 5.2 | 9.6 | 0.00 | 0.00 | 0.00 | 54 | 1014.9 |
| 20260507022101 | 70 | 344 | 7.0 | 9.6 | 0.00 | 0.00 | 0.00 | 53 | 1014.8 |
| 20260507021550 | 70 | 11 | 5.2 | 8.7 | 0.00 | 0.00 | 0.00 | 52 | 1014.8 |
| 20260507021100 | 71 | 348 | 6.1 | 8.7 | 0.00 | 0.00 | 0.00 | 51 | 1014.7 |
| 20260507020549 | 71 | 9 | 5.2 | 9.6 | 0.00 | 0.00 | 0.00 | 50 | 1014.7 |
| 20260507020057 | 71 | 354 | 5.2 | 9.6 | 0.00 | 0.00 | 0.00 | 50 | 1014.6 |
| 20260507015625 | 72 | 350 | 6.1 | 9.6 | 0.00 | 0.00 | 0.00 | 49 | 1014.5 |
| 20260507015050 | 72 | 7 | 7.0 | 9.6 | 0.00 | 0.00 | 0.00 | 48 | 1014.4 |
| 20260507014616 | 72 | 331 | 6.1 | 9.6 | 0.00 | 0.00 | 0.00 | 47 | 1014.4 |
| 20260507014125 | 73 | 356 | 6.1 | 9.6 | 0.00 | 0.00 | 0.00 | 47 | 1014.4 |
| 20260507013550 | 73 | 16 | 7.0 | 8.7 | 0.00 | 0.00 | 0.00 | 47 | 1014.3 |
| 20260507013100 | 73 | 346 | 6.1 | 10.4 | 0.00 | 0.00 | 0.00 | 46 | 1014.3 |
| 20260507012552 | 73 | 346 | 6.1 | 9.6 | 0.00 | 0.00 | 0.00 | 46 | 1014.2 |
| 20260507012059 | 74 | 354 | 7.0 | 9.6 | 0.00 | 0.00 | 0.00 | 45 | 1014.2 |
| 20260507011625 | 74 | 352 | 7.0 | 10.4 | 0.00 | 0.00 | 0.00 | 44 | 1014.2 |
| 20260507011051 | 75 | 329 | 7.0 | 10.4 | 0.00 | 0.00 | 0.00 | 44 | 1014.2 |
| 20260507010559 | 75 | 353 | 6.1 | 8.7 | 0.00 | 0.00 | 0.00 | 43 | 1014.2 |
| 20260507010108 | 75 | 323 | 5.2 | 8.7 | 0.00 | 0.00 | 0.00 | 43 | 1014.1 |
| 20260507005556 | 76 | 338 | 4.3 | 8.7 | 0.00 | 0.00 | 0.00 | 43 | 1014.1 |
| 20260507005046 | 76 | 327 | 3.5 | 7.0 | 0.00 | 0.00 | 0.00 | 43 | 1014.1 |
| 20260507004555 | 76 | 325 | 3.5 | 7.8 | 0.00 | 0.00 | 0.00 | 43 | 1014.1 |
| 20260507004100 | 76 | 356 | 3.5 | 8.7 | 0.00 | 0.00 | 0.00 | 44 | 1014.1 |
| 20260507003548 | 76 | 323 | 5.2 | 8.7 | 0.00 | 0.00 | 0.00 | 43 | 1014.0 |
| 20260507003056 | 76 | 355 | 5.2 | 8.7 | 0.00 | 0.00 | 0.00 | 43 | 1014.0 |
| 20260507002605 | 76 | 348 | 6.1 | 7.8 | 0.00 | 0.00 | 0.00 | 44 | 1013.9 |
| 20260507002055 | 76 | 323 | 5.2 | 9.6 | 0.00 | 0.00 | 0.00 | 43 | 1013.9 |
| 20260507001604 | 77 | 8 | 4.3 | 9.6 | 0.00 | 0.00 | 0.00 | 43 | 1013.9 |
| 20260507001051 | 77 | 346 | 3.5 | 7.8 | 0.00 | 0.00 | 0.00 | 43 | 1013.9 |
| 20260507000558 | 77 | 333 | 2.6 | 7.8 | 0.00 | 0.00 | 0.00 | 43 | 1013.8 |
| 20260507000049 | 78 | 15 | 3.5 | 8.7 | 0.00 | 0.00 | 0.00 | 42 | 1013.8 |
| 20260506235559 | 78 | 203 | 4.3 | 8.7 | 0.00 | 0.00 | 0.00 | 43 | 1013.8 |
| 20260506235108 | 77 | 337 | 2.6 | 9.6 | 0.00 | 0.00 | 0.00 | 43 | 1013.8 |
| 20260506234617 | 77 | 11 | 5.2 | 9.6 | 0.00 | 0.00 | 0.00 | 43 | 1013.8 |
| 20260506234047 | 77 | 356 | 5.2 | 9.6 | 0.00 | 0.00 | 0.00 | 43 | 1013.7 |
| 20260506233618 | 77 | 360 | 5.2 | 8.7 | 0.00 | 0.00 | 0.00 | 43 | 1013.8 |
| 20260506233046 | 77 | 321 | 4.3 | 9.6 | 0.00 | 0.00 | 0.00 | 43 | 1013.8 |
| 20260506232557 | 78 | 15 | 5.2 | 9.6 | 0.00 | 0.00 | 0.00 | 42 | 1013.9 |
| 20260506232049 | 78 | 344 | 4.3 | 8.7 | 0.00 | 0.00 | 0.00 | 41 | 1013.9 |
| 20260506231558 | 78 | 341 | 1.7 | 7.0 | 0.00 | 0.00 | 0.00 | 42 | 1013.9 |
| 20260506231106 | 78 | 278 | 3.5 | 8.7 | 0.00 | 0.00 | 0.00 | 42 | 1013.9 |
| 20260506230613 | 78 | 321 | 3.5 | 9.6 | 0.00 | 0.00 | 0.00 | 41 | 1013.9 |
| 20260506230058 | 78 | 23 | 5.2 | 11.3 | 0.00 | 0.00 | 0.00 | 42 | 1013.9 |
| 20260506225604 | 78 | 350 | 7.0 | 11.3 | 0.00 | 0.00 | 0.00 | 41 | 1013.9 |
| 20260506225054 | 78 | 2 | 5.2 | 8.7 | 0.00 | 0.00 | 0.00 | 41 | 1014.0 |
| 20260506224604 | 78 | 306 | 4.3 | 8.7 | 0.00 | 0.00 | 0.00 | 39 | 1014.1 |
| 20260506224112 | 79 | 302 | 1.7 | 9.6 | 0.00 | 0.00 | 0.00 | 40 | 1014.1 |
| 20260506223620 | 79 | 328 | 6.1 | 9.6 | 0.00 | 0.00 | 0.00 | 39 | 1014.1 |
| 20260506223050 | 79 | 352 | 5.2 | 10.4 | 0.00 | 0.00 | 0.00 | 39 | 1014.2 |
| 20260506222558 | 78 | 6 | 4.3 | 7.8 | 0.00 | 0.00 | 0.00 | 39 | 1014.2 |
| 20260506222126 | 79 | 344 | 1.7 | 7.8 | 0.00 | 0.00 | 0.00 | 38 | 1014.3 |
| 20260506221551 | 79 | 19 | 3.5 | 8.7 | 0.00 | 0.00 | 0.00 | 37 | 1014.3 |
| 20260506221120 | 80 | 326 | 4.3 | 7.8 | 0.00 | 0.00 | 0.00 | 37 | 1014.4 |
| 20260506220626 | 79 | 77 | 1.7 | 8.7 | 0.00 | 0.00 | 0.00 | 39 | 1014.4 |
| 20260506220052 | 79 | 352 | 4.3 | 8.7 | 0.00 | 0.00 | 0.00 | 37 | 1014.5 |
| 20260506215559 | 79 | 352 | 3.5 | 7.8 | 0.00 | 0.00 | 0.00 | 38 | 1014.5 |
| 20260506215047 | 78 | 352 | 2.6 | 10.4 | 0.00 | 0.00 | 0.00 | 38 | 1014.5 |
| 20260506214555 | 78 | 4 | 5.2 | 10.4 | 0.00 | 0.00 | 0.00 | 38 | 1014.6 |
| 20260506214104 | 78 | 344 | 3.5 | 7.8 | 0.00 | 0.00 | 0.00 | 38 | 1014.7 |
| 20260506213613 | 78 | 2 | 5.2 | 7.8 | 0.00 | 0.00 | 0.00 | 38 | 1014.8 |
| 20260506213122 | 78 | 15 | 4.3 | 7.8 | 0.00 | 0.00 | 0.00 | 39 | 1014.9 |
| 20260506212549 | 76 | 313 | 4.3 | 9.6 | 0.00 | 0.00 | 0.00 | 40 | 1015.0 |
| 20260506212055 | 77 | 17 | 5.2 | 10.4 | 0.00 | 0.00 | 0.00 | 39 | 1015.0 |
| 20260506211602 | 77 | 341 | 4.3 | 9.6 | 0.00 | 0.00 | 0.00 | 39 | 1015.1 |
| 20260506211052 | 77 | 341 | 5.2 | 9.6 | 0.00 | 0.00 | 0.00 | 38 | 1015.1 |
| 20260506210623 | 77 | 323 | 3.5 | 9.6 | 0.00 | 0.00 | 0.00 | 38 | 1015.2 |
| 20260506210113 | 77 | 338 | 3.5 | 6.1 | 0.00 | 0.00 | 0.00 | 39 | 1015.1 |
| 20260506205558 | 78 | 356 | 0.9 | 8.7 | 0.00 | 0.00 | 0.00 | 39 | 1015.2 |
| 20260506205048 | 77 | 121 | 1.7 | 8.7 | 0.00 | 0.00 | 0.00 | 41 | 1015.3 |
| 20260506204559 | 77 | 339 | 2.6 | 7.0 | 0.00 | 0.00 | 0.00 | 40 | 1015.3 |
| 20260506204048 | 76 | 347 | 3.5 | 7.0 | 0.00 | 0.00 | 0.00 | 41 | 1015.3 |
| 20260506203558 | 76 | 350 | 3.5 | 7.0 | 0.00 | 0.00 | 0.00 | 41 | 1015.4 |
| 20260506203105 | 76 | 358 | 1.7 | 7.8 | 0.00 | 0.00 | 0.00 | 41 | 1015.4 |
| 20260506202554 | 75 | 221 | 2.6 | 7.0 | 0.00 | 0.00 | 0.00 | 41 | 1015.5 |
| 20260506202102 | 75 | 330 | 3.5 | 7.0 | 0.00 | 0.00 | 0.00 | 42 | 1015.6 |
| 20260506201553 | 76 | 348 | 3.5 | 6.1 | 0.00 | 0.00 | 0.00 | 41 | 1015.6 |
| 20260506201117 | 76 | 316 | 1.7 | 7.0 | 0.00 | 0.00 | 0.00 | 41 | 1015.8 |
| 20260506200605 | 75 | 332 | 2.6 | 7.0 | 0.00 | 0.00 | 0.00 | 43 | 1015.9 |
| 20260506200056 | 74 | 17 | 3.5 | 7.0 | 0.00 | 0.00 | 0.00 | 43 | 1015.9 |
| 20260506195547 | 74 | 353 | 1.7 | 7.8 | 0.00 | 0.00 | 0.00 | 43 | 1015.9 |
| 20260506195117 | 74 | 347 | 2.6 | 7.0 | 0.00 | 0.00 | 0.00 | 44 | 1016.0 |
| 20260506194548 | 74 | 358 | 4.3 | 7.8 | 0.00 | 0.00 | 0.00 | 43 | 1016.0 |
| 20260506194055 | 73 | 11 | 4.3 | 8.7 | 0.00 | 0.00 | 0.00 | 43 | 1016.1 |
| 20260506193604 | 73 | 351 | 1.7 | 8.7 | 0.00 | 0.00 | 0.00 | 42 | 1016.2 |
| 20260506193052 | 73 | 63 | 2.6 | 8.7 | 0.00 | 0.00 | 0.00 | 43 | 1016.2 |
| 20260506192600 | 73 | 2 | 4.3 | 8.7 | 0.00 | 0.00 | 0.00 | 43 | 1016.3 |
| 20260506192050 | 72 | 11 | 3.5 | 8.7 | 0.00 | 0.00 | 0.00 | 45 | 1016.4 |
| 20260506191618 | 72 | 359 | 6.1 | 8.7 | 0.00 | 0.00 | 0.00 | 44 | 1016.5 |
| 20260506191047 | 72 | 347 | 2.6 | 7.0 | 0.00 | 0.00 | 0.00 | 44 | 1016.5 |
| 20260506190549 | 72 | 206 | 3.5 | 7.0 | 0.00 | 0.00 | 0.00 | 45 | 1016.5 |
| 20260506190057 | 71 | 324 | 1.7 | 7.0 | 0.00 | 0.00 | 0.00 | 45 | 1016.5 |
| 20260506185549 | 72 | 354 | 3.5 | 7.0 | 0.00 | 0.00 | 0.00 | 45 | 1016.7 |
| 20260506185058 | 72 | 355 | 1.7 | 3.5 | 0.00 | 0.00 | 0.00 | 44 | 1016.6 |
| 20260506184546 | 72 | 59 | 0.9 | 7.0 | 0.00 | 0.00 | 0.00 | 44 | 1016.7 |
| 20260506184117 | 72 | 327 | 2.6 | 8.7 | 0.00 | 0.00 | 0.00 | 45 | 1016.8 |
| 20260506183606 | 72 | 11 | 4.3 | 8.7 | 0.00 | 0.00 | 0.00 | 44 | 1016.9 |
| 20260506183053 | 73 | 197 | 1.7 | 3.5 | 0.00 | 0.00 | 0.00 | 43 | 1016.9 |
| 20260506182601 | 73 | 46 | 0.9 | 2.6 | 0.00 | 0.00 | 0.00 | 45 | 1016.9 |
| 20260506182048 | 71 | 209 | 0.9 | 2.6 | 0.00 | 0.00 | 0.00 | 45 | 1016.9 |
| 20260506181558 | 70 | 177 | 1.7 | 2.6 | 0.00 | 0.00 | 0.00 | 49 | 1016.9 |
| 20260506181126 | 69 | 173 | 0.9 | 7.0 | 0.00 | 0.00 | 0.00 | 50 | 1017.0 |
| 20260506180552 | 69 | 4 | 2.6 | 5.2 | 0.00 | 0.00 | 0.00 | 49 | 1017.1 |
| 20260506175552 | 70 | 326 | 0.9 | 5.2 | 0.00 | 0.00 | 0.00 | 47 | 1017.1 |
| 20260506175101 | 69 | 2 | 0.9 | 7.0 | 0.00 | 0.00 | 0.00 | 48 | 1017.0 |
| 20260506174552 | 70 | 17 | 0.9 | 6.1 | 0.00 | 0.00 | 0.00 | 47 | 1017.0 |
| 20260506174102 | 69 | 45 | 0.9 | 6.1 | 0.00 | 0.00 | 0.00 | 49 | 1017.0 |
| 20260506173553 | 69 | 27 | 2.6 | 6.1 | 0.00 | 0.00 | 0.00 | 48 | 1017.0 |
| 20260506173103 | 69 | 335 | 1.7 | 4.3 | 0.00 | 0.00 | 0.00 | 49 | 1017.0 |
| 20260506172551 | 68 | 275 | 0.9 | 3.5 | 0.00 | 0.00 | 0.00 | 50 | 1017.1 |
| 20260506172102 | 68 | 355 | 2.6 | 3.5 | 0.00 | 0.00 | 0.00 | 49 | 1017.1 |
| 20260506171552 | 68 | 129 | 0.9 | 3.5 | 0.00 | 0.00 | 0.00 | 50 | 1017.1 |
| 20260506171100 | 68 | 9 | 1.7 | 3.5 | 0.00 | 0.00 | 0.00 | 50 | 1017.1 |
| 20260506170548 | 69 | 210 | 0.9 | 3.5 | 0.00 | 0.00 | 0.00 | 50 | 1017.1 |
| 20260506170055 | 68 | 244 | 0.9 | 3.5 | 0.00 | 0.00 | 0.00 | 53 | 1017.1 |
| 20260506165604 | 67 | 82 | 0.0 | 2.6 | 0.00 | 0.00 | 0.00 | 53 | 1017.1 |
| 20260506165054 | 66 | 161 | 0.0 | 2.6 | 0.00 | 0.00 | 0.00 | 53 | 1017.1 |
| 20260506164601 | 67 | 341 | 0.9 | 2.6 | 0.00 | 0.00 | 0.00 | 52 | 1017.2 |
| 20260506164049 | 67 | 96 | 0.0 | 1.7 | 0.00 | 0.00 | 0.00 | 54 | 1017.2 |
| 20260506163557 | 65 | 336 | 0.9 | 1.7 | 0.00 | 0.00 | 0.00 | 54 | 1017.2 |
| 20260506163104 | 65 | 321 | 0.9 | 1.7 | 0.00 | 0.00 | 0.00 | 54 | 1017.2 |
| 20260506162554 | 66 | 336 | 0.0 | 1.7 | 0.00 | 0.00 | 0.00 | 54 | 1017.2 |
| 20260506162103 | 65 | 125 | 0.0 | 0.9 | 0.00 | 0.00 | 0.00 | 55 | 1017.2 |
| 20260506161553 | 64 | 11 | 0.0 | 1.7 | 0.00 | 0.00 | 0.00 | 56 | 1017.2 |
| 20260506161124 | 64 | 329 | 0.0 | 2.6 | 0.00 | 0.00 | 0.00 | 55 | 1017.2 |
| 20260506160551 | 64 | 183 | 0.9 | 2.6 | 0.00 | 0.00 | 0.00 | 56 | 1017.2 |
| 20260506160100 | 64 | 204 | 0.0 | 1.7 | 0.00 | 0.00 | 0.00 | 57 | 1017.2 |
| 20260506155608 | 63 | 225 | 0.9 | 1.7 | 0.00 | 0.00 | 0.00 | 57 | 1017.3 |
| 20260506155058 | 63 | 319 | 0.0 | 1.7 | 0.00 | 0.00 | 0.00 | 57 | 1017.4 |
| 20260506154547 | 64 | 185 | 0.0 | 0.9 | 0.00 | 0.00 | 0.00 | 57 | 1017.3 |
| 20260506154056 | 63 | 185 | 0.0 | 0.9 | 0.00 | 0.00 | 0.00 | 59 | 1017.2 |
| 20260506153602 | 63 | 185 | 0.0 | 0.9 | 0.00 | 0.00 | 0.00 | 60 | 1017.2 |
| 20260506153051 | 62 | 185 | 0.0 | 0.9 | 0.00 | 0.00 | 0.00 | 61 | 1017.2 |
| 20260506152558 | 61 | 185 | 0.0 | 0.9 | 0.00 | 0.00 | 0.00 | 64 | 1017.2 |
| 20260506152047 | 60 | 188 | 0.0 | 0.9 | 0.00 | 0.00 | 0.00 | 66 | 1017.3 |
| 20260506151557 | 58 | 188 | 0.0 | 0.9 | 0.00 | 0.00 | 0.00 | 67 | 1017.3 |
| 20260506151048 | 58 | 192 | 0.0 | 0.9 | 0.00 | 0.00 | 0.00 | 68 | 1017.3 |
| 20260506150555 | 57 | 192 | 0.0 | 0.9 | 0.00 | 0.00 | 0.00 | 70 | 1017.2 |
| 20260506150051 | 57 | 192 | 0.0 | 0.9 | 0.00 | 0.00 | 0.00 | 71 | 1017.3 |
| 20260506145555 | 56 | 192 | 0.0 | 0.9 | 0.00 | 0.00 | 0.00 | 72 | 1017.4 |
| 20260506145102 | 56 | 197 | 0.0 | 0.9 | 0.00 | 0.00 | 0.00 | 72 | 1017.4 |
| 20260506144554 | 56 | 15 | 0.0 | 0.9 | 0.00 | 0.00 | 0.00 | 72 | 1017.4 |
| 20260506144103 | 55 | 15 | 0.0 | 0.0 | 0.00 | 0.00 | 0.00 | 73 | 1017.4 |
| 20260506143551 | 54 | 15 | 0.0 | 0.0 | 0.00 | 0.00 | 0.00 | 75 | 1017.3 |
| 20260506143100 | 53 | 15 | 0.0 | 0.0 | 0.00 | 0.00 | 0.00 | 74 | 1017.2 |
| 20260506142610 | 52 | 15 | 0.0 | 0.9 | 0.00 | 0.00 | 0.00 | 77 | 1017.4 |
| 20260506142058 | 51 | 14 | 0.0 | 0.9 | 0.00 | 0.00 | 0.00 | 80 | 1017.3 |
| 20260506141606 | 50 | 15 | 0.0 | 0.9 | 0.00 | 0.00 | 0.00 | 81 | 1017.2 |
| 20260506141055 | 49 | 15 | 0.0 | 0.9 | 0.00 | 0.00 | 0.00 | 82 | 1017.3 |
| 20260506140601 | 49 | 14 | 0.0 | 0.0 | 0.00 | 0.00 | 0.00 | 82 | 1017.2 |
| 20260506140048 | 49 | 14 | 0.0 | 0.9 | 0.00 | 0.00 | 0.00 | 81 | 1017.1 |
| 20260506135553 | 49 | 14 | 0.0 | 0.9 | 0.00 | 0.00 | 0.00 | 83 | 1017.1 |
| 20260506135102 | 49 | 15 | 0.0 | 0.9 | 0.00 | 0.00 | 0.00 | 82 | 1017.2 |
| 20260506134549 | 49 | 14 | 0.0 | 0.9 | 0.00 | 0.00 | 0.00 | 83 | 1017.0 |
| 20260506134058 | 48 | 14 | 0.0 | 0.9 | 0.00 | 0.00 | 0.00 | 83 | 1017.0 |
| 20260506133548 | 48 | 17 | 0.0 | 0.9 | 0.00 | 0.00 | 0.00 | 83 | 1016.9 |
| 20260506133054 | 47 | 17 | 0.0 | 0.9 | 0.00 | 0.00 | 0.00 | 84 | 1016.8 |
| 20260506132617 | 47 | 17 | 0.0 | 0.9 | 0.00 | 0.00 | 0.00 | 83 | 1016.8 |
| 20260506132049 | 48 | 17 | 0.0 | 0.0 | 0.00 | 0.00 | 0.00 | 83 | 1016.7 |
| 20260506131600 | 48 | 17 | 0.0 | 0.0 | 0.00 | 0.00 | 0.00 | 83 | 1016.7 |
| 20260506131048 | 48 | 17 | 0.0 | 0.9 | 0.00 | 0.00 | 0.00 | 84 | 1016.6 |
| 20260506130558 | 47 | 17 | 0.0 | 0.9 | 0.00 | 0.00 | 0.00 | 84 | 1016.6 |
| 20260506130106 | 47 | 17 | 0.0 | 0.9 | 0.00 | 0.01 | 0.00 | 84 | 1016.7 |
| 20260506125612 | 47 | 63 | 0.0 | 0.9 | 0.00 | 0.01 | 0.00 | 84 | 1016.6 |
| 20260506125059 | 47 | 63 | 0.0 | 0.9 | 0.00 | 0.01 | 0.00 | 84 | 1016.6 |
| 20260506124553 | 47 | 64 | 0.0 | 0.9 | 0.00 | 0.01 | 0.00 | 82 | 1016.6 |
| 20260506124105 | 48 | 64 | 0.0 | 0.9 | 0.00 | 0.01 | 0.00 | 82 | 1016.5 |
| 20260506123553 | 48 | 64 | 0.0 | 0.9 | 0.00 | 0.01 | 0.00 | 83 | 1016.5 |
| 20260506123104 | 48 | 63 | 0.0 | 0.9 | 0.00 | 0.01 | 0.00 | 82 | 1016.5 |
| 20260506122554 | 48 | 63 | 0.0 | 0.9 | 0.00 | 0.01 | 0.00 | 81 | 1016.5 |
| 20260506122103 | 49 | 64 | 0.0 | 0.9 | 0.00 | 0.01 | 0.00 | 81 | 1016.4 |
| 20260506121552 | 49 | 63 | 0.0 | 0.9 | 0.00 | 0.01 | 0.00 | 81 | 1016.3 |
| 20260506121123 | 49 | 63 | 0.0 | 0.9 | 0.00 | 0.01 | 0.00 | 81 | 1016.3 |
| 20260506120552 | 48 | 129 | 0.0 | 0.9 | 0.00 | 0.01 | 0.00 | 82 | 1016.3 |
| 20260506120101 | 48 | 138 | 0.0 | 0.9 | 0.00 | 0.01 | 0.00 | 82 | 1016.3 |
| 20260506115551 | 48 | 138 | 0.0 | 0.9 | 0.00 | 0.01 | 0.00 | 81 | 1016.3 |
| 20260506115100 | 48 | 124 | 0.0 | 1.7 | 0.00 | 0.01 | 0.00 | 83 | 1016.4 |
| 20260506114548 | 48 | 50 | 0.0 | 0.9 | 0.00 | 0.01 | 0.00 | 81 | 1016.4 |
| 20260506114056 | 49 | 50 | 0.0 | 0.9 | 0.00 | 0.01 | 0.00 | 80 | 1016.3 |
| 20260506113605 | 49 | 2 | 0.0 | 0.9 | 0.00 | 0.01 | 0.00 | 80 | 1016.4 |
| 20260506113051 | 49 | 2 | 0.0 | 0.9 | 0.00 | 0.01 | 0.00 | 81 | 1016.3 |
| 20260506112620 | 49 | 2 | 0.0 | 0.9 | 0.00 | 0.01 | 0.00 | 82 | 1016.3 |
| 20260506112106 | 48 | 32 | 0.0 | 0.0 | 0.00 | 0.01 | 0.00 | 82 | 1016.3 |
| 20260506111555 | 48 | 32 | 0.0 | 0.0 | 0.00 | 0.01 | 0.00 | 83 | 1016.3 |
| 20260506111126 | 48 | 32 | 0.0 | 0.0 | 0.00 | 0.01 | 0.00 | 83 | 1016.3 |
| 20260506110617 | 48 | 32 | 0.0 | 0.0 | 0.00 | 0.01 | 0.00 | 82 | 1016.3 |
| 20260506110105 | 48 | 32 | 0.0 | 0.0 | 0.00 | 0.01 | 0.00 | 83 | 1016.3 |
| 20260506105554 | 48 | 31 | 0.0 | 0.9 | 0.00 | 0.01 | 0.00 | 82 | 1016.3 |
| 20260506105102 | 48 | 31 | 0.0 | 0.9 | 0.00 | 0.01 | 0.00 | 82 | 1016.2 |
| 20260506104552 | 48 | 350 | 0.0 | 0.9 | 0.00 | 0.01 | 0.00 | 82 | 1016.2 |
| 20260506104104 | 48 | 350 | 0.0 | 0.0 | 0.00 | 0.01 | 0.00 | 82 | 1016.3 |
| 20260506103613 | 48 | 350 | 0.0 | 0.9 | 0.00 | 0.01 | 0.00 | 82 | 1016.3 |
| 20260506103121 | 48 | 350 | 0.0 | 0.9 | 0.00 | 0.01 | 0.00 | 82 | 1016.3 |
| 20260506102549 | 48 | 177 | 0.0 | 0.9 | 0.00 | 0.01 | 0.00 | 83 | 1016.3 |
| 20260506102101 | 48 | 177 | 0.0 | 0.9 | 0.00 | 0.01 | 0.00 | 82 | 1016.3 |
| 20260506101549 | 48 | 177 | 0.0 | 0.9 | 0.00 | 0.01 | 0.00 | 83 | 1016.3 |
| 20260506101059 | 48 | 177 | 0.0 | 0.9 | 0.00 | 0.01 | 0.00 | 82 | 1016.3 |
| 20260506100548 | 49 | 177 | 0.0 | 0.9 | 0.00 | 0.01 | 0.00 | 82 | 1016.2 |
| 20260506100058 | 48 | 177 | 0.0 | 0.9 | 0.00 | 0.01 | 0.00 | 82 | 1016.2 |
| 20260506095606 | 49 | 177 | 0.0 | 0.0 | 0.00 | 0.01 | 0.00 | 81 | 1016.2 |
| 20260506095053 | 49 | 177 | 0.0 | 0.0 | 0.00 | 0.01 | 0.00 | 81 | 1016.3 |
| 20260506094600 | 50 | 177 | 0.0 | 0.9 | 0.00 | 0.01 | 0.00 | 80 | 1016.3 |
| 20260506094048 | 49 | 177 | 0.0 | 0.9 | 0.00 | 0.01 | 0.00 | 82 | 1016.3 |
| 20260506093554 | 49 | 177 | 0.0 | 0.9 | 0.00 | 0.01 | 0.00 | 82 | 1016.3 |
| 20260506093104 | 49 | 177 | 0.0 | 0.9 | 0.00 | 0.01 | 0.00 | 81 | 1016.3 |
| 20260506092552 | 49 | 178 | 0.0 | 0.0 | 0.00 | 0.01 | 0.00 | 80 | 1016.3 |
| 20260506092101 | 49 | 178 | 0.0 | 0.0 | 0.00 | 0.01 | 0.00 | 80 | 1016.3 |
| 20260506091550 | 50 | 178 | 0.0 | 0.9 | 0.00 | 0.01 | 0.00 | 80 | 1016.3 |
| 20260506091100 | 50 | 178 | 0.0 | 0.9 | 0.00 | 0.01 | 0.00 | 79 | 1016.3 |
| 20260506090549 | 50 | 177 | 0.0 | 0.9 | 0.00 | 0.01 | 0.00 | 78 | 1016.3 |
| 20260506090100 | 50 | 178 | 0.0 | 0.9 | 0.00 | 0.01 | 0.00 | 79 | 1016.3 |
| 20260506085556 | 51 | 178 | 0.0 | 0.9 | 0.00 | 0.01 | 0.00 | 77 | 1016.3 |
| 20260506085105 | 51 | 178 | 0.0 | 0.9 | 0.00 | 0.01 | 0.00 | 77 | 1016.4 |
| 20260506084552 | 51 | 185 | 0.0 | 0.0 | 0.00 | 0.01 | 0.00 | 79 | 1016.4 |
| 20260506084059 | 51 | 185 | 0.0 | 0.9 | 0.00 | 0.01 | 0.00 | 77 | 1016.5 |
| 20260506083609 | 52 | 185 | 0.0 | 0.9 | 0.00 | 0.01 | 0.00 | 79 | 1016.5 |
| 20260506083055 | 52 | 331 | 0.0 | 0.9 | 0.00 | 0.01 | 0.00 | 79 | 1016.5 |
| 20260506082604 | 52 | 331 | 0.0 | 1.7 | 0.00 | 0.01 | 0.00 | 79 | 1016.5 |
| 20260506082054 | 51 | 327 | 0.0 | 1.7 | 0.00 | 0.01 | 0.00 | 80 | 1016.5 |
| 20260506081625 | 52 | 175 | 0.0 | 0.9 | 0.00 | 0.01 | 0.00 | 79 | 1016.5 |
| 20260506081054 | 52 | 175 | 0.0 | 1.7 | 0.00 | 0.01 | 0.00 | 79 | 1016.6 |
| 20260506080606 | 52 | 50 | 0.0 | 1.7 | 0.00 | 0.01 | 0.00 | 78 | 1016.6 |
| 20260506073047 | 51 | 344 | 0.0 | 0.9 | 0.00 | 0.01 | 0.00 | 75 | 1016.7 |
| 20260506072557 | 52 | 344 | 0.0 | 0.9 | 0.00 | 0.01 | 0.00 | 74 | 1016.7 |
| 20260506072048 | 52 | 344 | 0.0 | 0.9 | 0.00 | 0.01 | 0.00 | 73 | 1016.7 |
| 20260506071558 | 52 | 142 | 0.0 | 0.9 | 0.00 | 0.01 | 0.00 | 73 | 1016.7 |
| 20260506071047 | 52 | 142 | 0.0 | 0.9 | 0.00 | 0.01 | 0.00 | 73 | 1016.7 |
| 20260506070555 | 52 | 142 | 0.0 | 0.9 | 0.00 | 0.01 | 0.00 | 73 | 1016.6 |
| 20260506070103 | 52 | 142 | 0.0 | 0.9 | 0.00 | 0.01 | 0.01 | 72 | 1016.6 |
| 20260506062112 | 54 | 144 | 0.0 | 3.5 | 0.00 | 0.01 | 0.01 | 68 | 1016.1 |
| 20260506061600 | 54 | 51 | 0.9 | 3.5 | 0.00 | 0.01 | 0.01 | 68 | 1016.2 |
| 20260506061050 | 54 | 167 | 0.9 | 1.7 | 0.00 | 0.01 | 0.01 | 69 | 1016.1 |
| 20260506060620 | 53 | 234 | 0.0 | 0.9 | 0.00 | 0.01 | 0.01 | 70 | 1016.1 |
| 20260506060108 | 53 | 297 | 0.0 | 0.9 | 0.00 | 0.01 | 0.01 | 70 | 1016.1 |